KQA8713 HKMO-HKJK

Flight info

Callsign KQA8713
Flight time 0h 39m
Altitude 24000
Route NERAG1A UTIKU Q315 UTEPI UTEPI1A
Aircraft B738/M-SDE2E3FGHIRWXY/LB1

Departure

Time 2026-04-26 12:15
Airport Moi International Airport (HKMO)

Arrival

Time 2026-04-26 12:55
Airport Jomo Kenyatta International Airport (HKJK)
Time Latitude Longitude Altitude Speed Heading
2026-04-26 11:34 -4.03206 39.60191 229 ft 0 kts 121°
2026-04-26 12:02 -4.03203 39.60189 202 ft 3 kts 99°
2026-04-26 12:02 -4.03198 39.60181 210 ft 3 kts 123°
2026-04-26 12:02 -4.03195 39.60166 202 ft 3 kts 98°
2026-04-26 12:03 -4.03192 39.60147 212 ft 3 kts 93°
2026-04-26 12:03 -4.03192 39.60127 204 ft 3 kts 76°
2026-04-26 12:03 -4.03199 39.60109 210 ft 3 kts 49°
2026-04-26 12:03 -4.03213 39.60099 211 ft 2 kts 29°
2026-04-26 12:04 -4.03226 39.60091 206 ft 2 kts 29°
2026-04-26 12:04 -4.03229 39.60089 206 ft 1 kts 29°
2026-04-26 12:08 -4.03227 39.60091 201 ft 2 kts 29°
2026-04-26 12:08 -4.03174 39.60120 209 ft 13 kts 29°
2026-04-26 12:09 -4.03087 39.60140 202 ft 13 kts 339°
2026-04-26 12:09 -4.03029 39.60064 202 ft 15 kts 300°
2026-04-26 12:09 -4.02973 39.59968 210 ft 17 kts 301°
2026-04-26 12:09 -4.02911 39.59944 205 ft 7 kts 23°
2026-04-26 12:10 -4.02862 39.59971 212 ft 9 kts 29°
2026-04-26 12:10 -4.02799 39.60006 205 ft 12 kts 29°
2026-04-26 12:10 -4.02720 39.60049 213 ft 14 kts 28°
2026-04-26 12:10 -4.02626 39.60100 210 ft 17 kts 28°
2026-04-26 12:11 -4.02519 39.60159 204 ft 19 kts 28°
2026-04-26 12:11 -4.02403 39.60225 206 ft 21 kts 30°
2026-04-26 12:11 -4.02268 39.60302 212 ft 23 kts 30°
2026-04-26 12:11 -4.02124 39.60384 209 ft 25 kts 30°
2026-04-26 12:12 -4.01995 39.60427 211 ft 8 kts 325°
2026-04-26 12:12 -4.01978 39.60382 205 ft 0 kts 272°
2026-04-26 12:12 -4.01978 39.60381 205 ft 0 kts 272°
2026-04-26 12:13 -4.01978 39.60375 205 ft 3 kts 272°
2026-04-26 12:13 -4.01976 39.60344 205 ft 6 kts 272°
2026-04-26 12:14 -4.01976 39.60290 205 ft 9 kts 268°
2026-04-26 12:14 -4.02018 39.60244 207 ft 10 kts 210°
2026-04-26 12:14 -4.02290 39.60092 209 ft 89 kts 208°
2026-04-26 12:14 -4.03065 39.59675 236 ft 162 kts 206°
2026-04-26 12:15 -4.04152 39.59006 677 ft 197 kts 211°
2026-04-26 12:15 -4.05316 39.58282 1717 ft 188 kts 209°
2026-04-26 12:15 -4.06127 39.57285 2886 ft 194 kts 249°
2026-04-26 12:15 -4.06097 39.55847 3391 ft 229 kts 285°
2026-04-26 12:16 -4.05193 39.54393 3650 ft 263 kts 307°
2026-04-26 12:16 -4.03929 39.52968 4196 ft 279 kts 310°
2026-04-26 12:16 -4.02586 39.51527 4992 ft 286 kts 310°
2026-04-26 12:16 -4.01219 39.50070 5847 ft 288 kts 311°
2026-04-26 12:17 -3.99863 39.48622 6707 ft 290 kts 311°
2026-04-26 12:17 -3.98478 39.47137 7489 ft 293 kts 311°
2026-04-26 12:17 -3.97073 39.45622 8209 ft 301 kts 311°
2026-04-26 12:17 -3.95657 39.44091 9078 ft 300 kts 311°
2026-04-26 12:18 -3.94226 39.42538 9852 ft 306 kts 311°
2026-04-26 12:18 -3.92765 39.40951 10497 ft 314 kts 311°
2026-04-26 12:18 -3.91235 39.39283 10727 ft 336 kts 311°
2026-04-26 12:18 -3.89627 39.37531 11187 ft 347 kts 311°
2026-04-26 12:19 -3.87998 39.35755 11797 ft 353 kts 311°
2026-04-26 12:19 -3.86333 39.33940 12540 ft 354 kts 311°
2026-04-26 12:19 -3.84666 39.32123 13294 ft 356 kts 311°
2026-04-26 12:19 -3.82982 39.30286 13930 ft 360 kts 311°
2026-04-26 12:20 -3.81274 39.28424 14523 ft 364 kts 312°
2026-04-26 12:20 -3.79558 39.26552 15103 ft 367 kts 312°
2026-04-26 12:20 -3.77821 39.24658 15701 ft 370 kts 312°
2026-04-26 12:20 -3.76071 39.22749 16293 ft 374 kts 313°
2026-04-26 12:21 -3.74323 39.20843 16856 ft 378 kts 313°
2026-04-26 12:21 -3.72541 39.18899 17413 ft 381 kts 313°
2026-04-26 12:21 -3.70738 39.16933 17967 ft 385 kts 313°
2026-04-26 12:21 -3.68921 39.14952 18477 ft 388 kts 314°
2026-04-26 12:22 -3.67086 39.12952 18968 ft 390 kts 314°
2026-04-26 12:22 -3.65244 39.10944 19465 ft 393 kts 314°
2026-04-26 12:22 -3.63406 39.08939 19941 ft 395 kts 314°
2026-04-26 12:22 -3.61521 39.06884 20425 ft 398 kts 314°
2026-04-26 12:23 -3.59671 39.04867 20891 ft 401 kts 314°
2026-04-26 12:23 -3.57777 39.02802 21374 ft 403 kts 314°
2026-04-26 12:23 -3.55883 39.00735 21821 ft 405 kts 314°
2026-04-26 12:23 -3.53974 38.98656 22337 ft 406 kts 314°
2026-04-26 12:24 -3.52067 38.96578 22993 ft 403 kts 315°
2026-04-26 12:24 -3.50183 38.94524 23619 ft 400 kts 314°
2026-04-26 12:24 -3.48298 38.92470 23907 ft 401 kts 315°
2026-04-26 12:25 -3.44531 38.88368 23957 ft 405 kts 315°
2026-04-26 12:25 -3.42600 38.86264 23965 ft 416 kts 314°
2026-04-26 12:25 -3.40613 38.84099 23969 ft 425 kts 314°
2026-04-26 12:25 -3.38592 38.81897 23972 ft 434 kts 315°
2026-04-26 12:26 -3.36575 38.79701 23970 ft 441 kts 315°
2026-04-26 12:26 -3.34468 38.77406 23968 ft 448 kts 314°
2026-04-26 12:26 -3.32350 38.75101 23967 ft 454 kts 314°
2026-04-26 12:26 -3.30205 38.72764 23964 ft 459 kts 314°
2026-04-26 12:27 -3.28027 38.70390 23968 ft 464 kts 315°
2026-04-26 12:27 -3.25851 38.68019 23965 ft 468 kts 314°
2026-04-26 12:27 -3.23628 38.65597 23965 ft 471 kts 314°
2026-04-26 12:27 -3.21425 38.63209 23963 ft 474 kts 315°
2026-04-26 12:28 -3.19165 38.60793 23969 ft 477 kts 315°
2026-04-26 12:28 -3.16881 38.58368 23966 ft 479 kts 315°
2026-04-26 12:28 -3.14597 38.55945 23970 ft 480 kts 315°
2026-04-26 12:28 -3.12305 38.53513 23962 ft 480 kts 315°
2026-04-26 12:29 -3.10024 38.51088 23963 ft 479 kts 315°
2026-04-26 12:29 -3.07741 38.48658 23963 ft 479 kts 315°
2026-04-26 12:29 -3.03179 38.43802 23967 ft 478 kts 315°
2026-04-26 12:30 -3.00892 38.41366 23968 ft 478 kts 315°
2026-04-26 12:30 -2.98657 38.38986 23972 ft 478 kts 315°
2026-04-26 12:30 -2.96377 38.36558 23972 ft 477 kts 315°
2026-04-26 12:31 -2.91836 38.31721 23980 ft 477 kts 315°
2026-04-26 12:31 -2.89570 38.29307 23982 ft 477 kts 315°
2026-04-26 12:31 -2.87295 38.26883 23982 ft 477 kts 315°
2026-04-26 12:31 -2.85030 38.24471 23985 ft 477 kts 315°
2026-04-26 12:32 -2.82767 38.22060 23988 ft 477 kts 315°
2026-04-26 12:32 -2.80522 38.19669 23989 ft 477 kts 315°
2026-04-26 12:32 -2.75978 38.14830 23996 ft 477 kts 315°
2026-04-26 12:33 -2.73712 38.12418 24001 ft 477 kts 315°
2026-04-26 12:33 -2.71446 38.10005 24020 ft 477 kts 315°
2026-04-26 12:33 -2.69167 38.07579 24012 ft 479 kts 315°
2026-04-26 12:33 -2.66884 38.05149 24003 ft 479 kts 315°
2026-04-26 12:34 -2.64609 38.02727 24009 ft 478 kts 315°
2026-04-26 12:34 -2.62323 38.00292 24013 ft 478 kts 315°
2026-04-26 12:34 -2.60052 37.97875 24021 ft 477 kts 315°
2026-04-26 12:34 -2.57810 37.95488 24021 ft 477 kts 315°
2026-04-26 12:35 -2.55520 37.93051 24023 ft 477 kts 315°
2026-04-26 12:35 -2.53278 37.90664 24027 ft 477 kts 315°
2026-04-26 12:35 -2.50999 37.88240 24026 ft 477 kts 315°
2026-04-26 12:35 -2.48734 37.85829 24032 ft 477 kts 315°
2026-04-26 12:36 -2.46461 37.83411 24034 ft 477 kts 315°
2026-04-26 12:36 -2.44186 37.80991 24033 ft 477 kts 314°
2026-04-26 12:36 -2.41914 37.78574 24035 ft 477 kts 314°
2026-04-26 12:36 -2.39641 37.76156 24037 ft 477 kts 314°
2026-04-26 12:37 -2.37370 37.73740 24038 ft 477 kts 314°
2026-04-26 12:37 -2.35122 37.71349 24034 ft 477 kts 314°
2026-04-26 12:37 -2.32858 37.68940 24042 ft 477 kts 314°
2026-04-26 12:37 -2.30583 37.66520 24043 ft 477 kts 314°
2026-04-26 12:38 -2.28309 37.64101 24044 ft 477 kts 314°
2026-04-26 12:38 -2.26029 37.61676 24046 ft 477 kts 314°
2026-04-26 12:38 -2.23759 37.59262 24049 ft 477 kts 314°
2026-04-26 12:38 -2.21483 37.56841 24021 ft 478 kts 314°
2026-04-26 12:39 -2.19214 37.54428 23659 ft 476 kts 314°
2026-04-26 12:39 -2.16964 37.52034 23174 ft 466 kts 314°
2026-04-26 12:39 -2.14803 37.49735 22700 ft 456 kts 314°
2026-04-26 12:39 -2.12658 37.47454 22249 ft 447 kts 314°
2026-04-26 12:40 -2.10540 37.45200 21799 ft 439 kts 314°
2026-04-26 12:40 -2.08478 37.43008 21361 ft 431 kts 314°
2026-04-26 12:40 -2.06436 37.40838 20927 ft 424 kts 314°
2026-04-26 12:40 -2.04429 37.38705 20508 ft 418 kts 314°
2026-04-26 12:41 -2.02473 37.36625 20165 ft 411 kts 314°
2026-04-26 12:41 -2.00555 37.34586 20105 ft 395 kts 314°
2026-04-26 12:41 -1.98709 37.32622 20088 ft 380 kts 314°
2026-04-26 12:41 -1.96941 37.30741 20081 ft 365 kts 315°
2026-04-26 12:42 -1.95231 37.28923 20082 ft 351 kts 315°
2026-04-26 12:42 -1.93584 37.27172 20053 ft 339 kts 315°
2026-04-26 12:42 -1.91999 37.25487 19968 ft 326 kts 315°
2026-04-26 12:42 -1.90466 37.23857 19694 ft 317 kts 315°
2026-04-26 12:43 -1.88967 37.22266 19236 ft 316 kts 315°
2026-04-26 12:43 -1.87435 37.20641 18251 ft 334 kts 315°
2026-04-26 12:43 -1.85813 37.18921 17365 ft 344 kts 314°
2026-04-26 12:43 -1.84171 37.17177 16782 ft 342 kts 314°
2026-04-26 12:44 -1.82554 37.15458 16300 ft 337 kts 314°
2026-04-26 12:44 -1.81027 37.13834 15808 ft 334 kts 314°
2026-04-26 12:44 -1.79439 37.12146 15263 ft 332 kts 314°
2026-04-26 12:44 -1.77860 37.10469 14745 ft 330 kts 314°
2026-04-26 12:45 -1.76299 37.08809 14311 ft 325 kts 314°
2026-04-26 12:45 -1.74775 37.07189 13944 ft 318 kts 314°
2026-04-26 12:45 -1.73279 37.05600 13581 ft 310 kts 314°
2026-04-26 12:45 -1.71834 37.04064 13249 ft 305 kts 314°
2026-04-26 12:46 -1.70366 37.02505 12925 ft 308 kts 314°
2026-04-26 12:46 -1.68889 37.00935 12603 ft 312 kts 314°
2026-04-26 12:46 -1.67392 36.99344 12265 ft 316 kts 314°
2026-04-26 12:46 -1.65984 36.97850 11961 ft 318 kts 314°
2026-04-26 12:47 -1.64466 36.96238 11614 ft 317 kts 314°
2026-04-26 12:47 -1.62957 36.94634 11271 ft 316 kts 313°
2026-04-26 12:47 -1.61473 36.93056 10946 ft 315 kts 313°
2026-04-26 12:47 -1.59970 36.91460 10599 ft 314 kts 313°
2026-04-26 12:48 -1.58476 36.89872 10305 ft 312 kts 313°
2026-04-26 12:48 -1.57003 36.88307 10106 ft 306 kts 313°
2026-04-26 12:48 -1.55558 36.86771 9937 ft 299 kts 313°
2026-04-26 12:48 -1.54157 36.85283 9672 ft 295 kts 313°
2026-04-26 12:49 -1.52743 36.83781 9337 ft 295 kts 313°
2026-04-26 12:49 -1.51324 36.82337 9033 ft 294 kts 320°
2026-04-26 12:49 -1.49698 36.81104 8892 ft 285 kts 325°
2026-04-26 12:49 -1.48146 36.80028 8759 ft 264 kts 326°
2026-04-26 12:50 -1.46699 36.79016 8635 ft 246 kts 326°
2026-04-26 12:50 -1.45280 36.78206 8495 ft 227 kts 346°
2026-04-26 12:50 -1.43758 36.78224 8088 ft 218 kts 27°
2026-04-26 12:50 -1.42605 36.79060 7929 ft 200 kts 40°
2026-04-26 12:51 -1.41561 36.79939 7723 ft 190 kts 47°
2026-04-26 12:51 -1.40688 36.80867 7602 ft 180 kts 51°
2026-04-26 12:51 -1.39919 36.81805 7586 ft 169 kts 55°
2026-04-26 12:51 -1.39234 36.82723 7473 ft 165 kts 57°
2026-04-26 12:52 -1.38564 36.83643 7286 ft 161 kts 57°
2026-04-26 12:52 -1.37908 36.84544 7090 ft 158 kts 57°
2026-04-26 12:52 -1.37257 36.85442 6893 ft 160 kts 57°
2026-04-26 12:52 -1.36601 36.86346 6700 ft 161 kts 57°
2026-04-26 12:53 -1.35943 36.87252 6493 ft 161 kts 57°
2026-04-26 12:53 -1.35282 36.88154 6212 ft 162 kts 57°
2026-04-26 12:53 -1.34615 36.89071 5922 ft 164 kts 56°
2026-04-26 12:53 -1.33965 36.89962 5670 ft 159 kts 54°
2026-04-26 12:54 -1.33314 36.90868 5526 ft 163 kts 56°
2026-04-26 12:54 -1.32640 36.91783 5394 ft 164 kts 56°
2026-04-26 12:54 -1.31991 36.92694 5313 ft 154 kts 57°
2026-04-26 12:54 -1.31457 36.93410 5302 ft 77 kts 56°
2026-04-26 12:55 -1.31246 36.93706 5303 ft 45 kts 52°
2026-04-26 12:55 -1.31188 36.93841 5299 ft 10 kts 133°
2026-04-26 12:55 -1.31244 36.93881 5301 ft 10 kts 142°
2026-04-26 12:55 -1.31298 36.93920 5303 ft 9 kts 145°
2026-04-26 12:56 -1.31351 36.93958 5302 ft 9 kts 144°
2026-04-26 12:56 -1.31406 36.93990 5303 ft 9 kts 159°
2026-04-26 12:56 -1.31445 36.93986 5301 ft 4 kts 225°
2026-04-26 12:56 -1.31465 36.93962 5301 ft 4 kts 233°
2026-04-26 12:57 -1.31483 36.93937 5305 ft 5 kts 234°
2026-04-26 12:57 -1.31508 36.93903 5302 ft 8 kts 234°
2026-04-26 12:57 -1.31556 36.93838 5307 ft 15 kts 229°
2026-04-26 12:58 -1.31729 36.93604 5309 ft 27 kts 234°
2026-04-26 12:58 -1.31842 36.93450 5302 ft 28 kts 234°
2026-04-26 12:58 -1.31957 36.93292 5307 ft 29 kts 233°
2026-04-26 12:58 -1.32070 36.93135 5310 ft 27 kts 234°
2026-04-26 12:59 -1.32168 36.93002 5320 ft 25 kts 234°
2026-04-26 12:59 -1.32278 36.92852 5314 ft 30 kts 234°
2026-04-26 12:59 -1.32403 36.92680 5317 ft 32 kts 234°
2026-04-26 12:59 -1.32531 36.92506 5321 ft 27 kts 233°
2026-04-26 13:00 -1.32632 36.92371 5321 ft 19 kts 223°
2026-04-26 13:00 -1.32697 36.92364 5323 ft 5 kts 154°
2026-04-26 13:00 -1.32729 36.92382 5321 ft 8 kts 147°
2026-04-26 13:00 -1.32767 36.92398 5321 ft 4 kts 180°
2026-04-26 13:01 -1.32791 36.92378 5313 ft 7 kts 234°
2026-04-26 13:01 -1.32828 36.92321 5323 ft 13 kts 233°
2026-04-26 13:01 -1.32882 36.92271 5318 ft 7 kts 211°
2026-04-26 13:01 -1.32935 36.92251 5322 ft 10 kts 211°
2026-04-26 13:02 -1.32982 36.92231 5317 ft 0 kts 173°
2026-04-26 13:02 -1.32983 36.92235 5323 ft 1 kts 124°
2026-04-26 13:02 -1.32994 36.92262 5323 ft 7 kts 107°
2026-04-26 13:02 -1.33006 36.92309 5321 ft 0 kts 104°
2026-04-26 13:03 -1.33006 36.92311 5320 ft 1 kts 103°